Overview Statistics Trail Chart Weather Telemetry Raw packets
 

This is the latest recevied weather packets stored in our database for station/object F8KHU-13. If no packets are shown the sender has not sent any weather packets the latest 10 day(s).

<< 27 28 29 30 31 32 33 >>
Time Temp. Humidity Pressure Rain* Wind** Luminosity Snow
1788351064 22.78° C 26% 1021.7 hPa 0 mm - 0 W/m² -
1788351044 22.78° C 26% 1021.6 hPa 0 mm - 0 W/m² -
1788351024 22.78° C 26% 1021.7 hPa 0 mm - 0 W/m² -
1788350164 22.78° C 26% 1021.7 hPa 0 mm - 0 W/m² -
1788350144 21.67° C 27% 1021.7 hPa 0 mm - 0 W/m² -
1788350124 22.78° C 26% 1021.7 hPa 0 mm - 0 W/m² -
1788349264 21.67° C 27% 1021.7 hPa 0 mm - 0 W/m² -
1788349244 21.67° C 27% 1021.7 hPa 0 mm - 0 W/m² -
1788349224 21.67° C 27% 1021.7 hPa 0 mm - 0 W/m² -
1788348364 20.56° C 27% 1021.7 hPa 0 mm - 0 W/m² -
1788348344 20.56° C 27% 1021.7 hPa 0 mm - 0 W/m² -
1788348324 20.56° C 27% 1021.8 hPa 0 mm - 0 W/m² -
1788347465 20° C 28% 1021.9 hPa 0 mm - 0 W/m² -
1788347444 20.56° C 27% 1021.9 hPa 0 mm - 0 W/m² -
1788347424 20.56° C 27% 1022 hPa 0 mm - 0 W/m² -
1788346564 20° C 28% 1022 hPa 0 mm - 0 W/m² -
1788346545 20.56° C 27% 1022 hPa 0 mm - 0 W/m² -
1788346525 20.56° C 27% 1022 hPa 0 mm - 0 W/m² -
1788345665 20° C 28% 1021.8 hPa 0 mm - 0 W/m² -
1788345645 20° C 28% 1021.9 hPa 0 mm - 0 W/m² -
1788345625 20° C 28% 1021.8 hPa 0 mm - 0 W/m² -
1788344765 20° C 28% 1021.9 hPa 0 mm - 0 W/m² -
1788344745 20° C 28% 1021.9 hPa 0 mm - 0 W/m² -
1788344725 20° C 28% 1021.9 hPa 0 mm - 0 W/m² -
1788343865 20° C 28% 1022.1 hPa 0 mm - 0 W/m² -

* Rain latest hour (hover to see other rain measurements)
** Current wind speed in m/s (hover to see current wind gust speed)